Time,TemperatureF,DewpointF,PressureIn,WindDirection,WindDirectionDegrees,WindSpeedMPH,WindSpeedGustMPH,Humidity,HourlyPrecipIn,Conditions,Clouds,dailyrainin,SolarRadiationWatts/m^2,SoftwareType,DateUTC
2014-04-16 07:05:00,59.2,57.8,28.36,SW,225,0.0,0.0,95,0.00,,,0.20,46,Wunderground v.1.15,2014-04-15 21:05:00,
2014-04-16 07:15:00,59.3,57.9,28.37,West,275,0.0,0.0,95,0.00,,,0.20,58,Wunderground v.1.15,2014-04-15 21:15:00,
2014-04-16 07:20:00,59.3,57.9,28.36,West,262,0.0,0.0,95,0.00,,,0.20,56,Wunderground v.1.15,2014-04-15 21:20:00,
2014-04-16 07:25:00,59.2,57.5,28.36,SW,234,1.0,1.0,94,0.00,,,0.20,58,Wunderground v.1.15,2014-04-15 21:25:00,
2014-04-16 07:30:00,59.2,57.5,28.36,South,191,2.0,2.0,94,0.00,,,0.20,63,Wunderground v.1.15,2014-04-15 21:30:00,
2014-04-16 07:40:00,59.3,57.6,28.36,South,169,1.0,1.0,94,0.00,,,0.20,120,Wunderground v.1.15,2014-04-15 21:40:00,
2014-04-16 07:45:00,59.6,57.9,28.36,WSW,257,2.0,2.0,94,0.00,,,0.20,165,Wunderground v.1.15,2014-04-15 21:45:00,
2014-04-16 07:55:00,59.9,57.9,28.37,SSW,210,2.0,3.0,93,0.00,,,0.20,121,Wunderground v.1.15,2014-04-15 21:55:00,
2014-04-16 08:00:00,60.0,58.0,28.37,SSE,168,1.0,1.0,93,0.00,,,0.20,149,Wunderground v.1.15,2014-04-15 22:00:00,
2014-04-16 08:05:00,60.5,58.2,28.37,SW,225,2.0,5.0,92,0.00,,,0.20,185,Wunderground v.1.15,2014-04-15 22:05:00,
2014-04-16 08:15:00,60.9,58.3,28.37,South,186,3.0,3.0,91,0.00,,,0.20,206,Wunderground v.1.15,2014-04-15 22:15:00,
2014-04-16 08:20:00,61.3,58.3,28.37,West,260,2.0,2.0,90,0.00,,,0.20,229,Wunderground v.1.15,2014-04-15 22:20:00,
2014-04-16 08:25:00,61.4,58.4,28.37,West,270,2.0,2.0,90,0.00,,,0.20,137,Wunderground v.1.15,2014-04-15 22:25:00,
2014-04-16 08:30:00,61.5,58.2,28.37,SW,230,2.0,2.0,89,0.00,,,0.20,151,Wunderground v.1.15,2014-04-15 22:30:00,
2014-04-16 08:40:00,61.9,58.6,28.38,SW,220,1.0,1.0,89,0.00,,,0.20,218,Wunderground v.1.15,2014-04-15 22:40:00,
2014-04-16 08:50:00,62.3,58.7,28.37,SSW,196,4.0,4.0,88,0.00,,,0.20,178,Wunderground v.1.15,2014-04-15 22:50:00,
2014-04-16 08:55:00,62.4,58.5,28.37,WSW,246,4.0,5.0,87,0.00,,,0.20,216,Wunderground v.1.15,2014-04-15 22:55:00,
2014-04-16 09:00:00,62.6,58.7,28.37,WSW,237,3.0,3.0,87,0.00,,,0.20,213,Wunderground v.1.15,2014-04-15 23:00:00,
2014-04-16 09:05:00,62.9,58.6,28.38,WSW,257,3.0,3.0,86,0.00,,,0.20,255,Wunderground v.1.15,2014-04-15 23:05:00,
2014-04-16 09:15:00,63.3,58.7,28.37,SSW,211,3.0,5.0,85,0.00,,,0.20,320,Wunderground v.1.15,2014-04-15 23:15:00,
2014-04-16 09:20:00,63.5,58.9,28.38,West,266,4.0,6.0,85,0.00,,,0.20,485,Wunderground v.1.15,2014-04-15 23:20:00,
2014-04-16 09:25:00,63.9,59.0,28.37,SSW,198,3.0,6.0,84,0.00,,,0.20,209,Wunderground v.1.15,2014-04-15 23:25:00,
2014-04-16 09:35:00,64.9,59.9,28.37,WSW,240,3.0,3.0,84,0.00,,,0.20,232,Wunderground v.1.15,2014-04-15 23:35:00,
2014-04-16 09:45:00,65.3,59.7,28.38,South,173,4.0,6.0,82,0.00,,,0.21,603,Wunderground v.1.15,2014-04-15 23:45:00,
2014-04-16 09:50:00,65.5,59.5,28.38,SSW,198,4.0,6.0,81,0.00,,,0.21,628,Wunderground v.1.15,2014-04-15 23:50:00,
2014-04-16 09:55:00,65.8,59.8,28.37,SSE,148,5.0,6.0,81,0.00,,,0.21,438,Wunderground v.1.15,2014-04-15 23:55:00,
2014-04-16 10:00:00,65.9,59.6,28.37,SW,236,4.0,5.0,80,0.00,,,0.21,638,Wunderground v.1.15,2014-04-16 00:00:00,
2014-04-16 10:10:00,66.0,59.3,28.37,WSW,242,6.0,6.0,79,0.00,,,0.21,663,Wunderground v.1.15,2014-04-16 00:10:00,
2014-04-16 10:15:00,66.4,60.0,28.37,SSE,161,5.0,7.0,80,0.00,,,0.21,657,Wunderground v.1.15,2014-04-16 00:15:00,
2014-04-16 10:20:00,67.0,60.3,28.37,SW,223,5.0,5.0,79,0.00,,,0.21,635,Wunderground v.1.15,2014-04-16 00:20:00,
2014-04-16 10:25:00,67.7,60.6,28.37,WSW,248,4.0,7.0,78,0.00,,,0.21,679,Wunderground v.1.15,2014-04-16 00:25:00,
2014-04-16 10:30:00,68.1,60.2,28.37,SSW,196,4.0,7.0,76,0.00,,,0.21,675,Wunderground v.1.15,2014-04-16 00:30:00,
2014-04-16 10:40:00,68.3,60.4,28.37,SSE,157,5.0,12.0,76,0.00,,,0.21,756,Wunderground v.1.15,2014-04-16 00:40:00,
2014-04-16 10:50:00,68.8,60.6,28.37,WNW,298,4.0,7.0,75,0.00,,,0.21,469,Wunderground v.1.15,2014-04-16 00:50:00,
2014-04-16 10:55:00,68.2,59.6,28.37,SW,228,4.0,7.0,74,0.00,,,0.21,464,Wunderground v.1.15,2014-04-16 00:55:00,
2014-04-16 11:00:00,68.2,60.3,28.37,SSW,198,5.0,6.0,76,0.00,,,0.21,812,Wunderground v.1.15,2014-04-16 01:00:00,
2014-04-16 11:05:00,69.0,60.7,28.37,WSW,255,5.0,6.0,75,0.00,,,0.21,886,Wunderground v.1.15,2014-04-16 01:05:00,
2014-04-16 11:15:00,69.3,60.3,28.36,SSE,165,4.0,4.0,73,0.00,,,0.21,318,Wunderground v.1.15,2014-04-16 01:15:00,
2014-04-16 11:20:00,69.1,60.1,28.36,WSW,257,4.0,4.0,73,0.00,,,0.21,415,Wunderground v.1.15,2014-04-16 01:20:00,
2014-04-16 11:25:00,68.6,59.6,28.37,West,273,5.0,5.0,73,0.00,,,0.21,432,Wunderground v.1.15,2014-04-16 01:25:00,
2014-04-16 11:30:00,68.5,59.5,28.36,SSW,193,5.0,5.0,73,0.00,,,0.21,401,Wunderground v.1.15,2014-04-16 01:30:00,
2014-04-16 11:40:00,67.6,59.4,28.36,South,176,5.0,5.0,75,0.00,,,0.21,306,Wunderground v.1.15,2014-04-16 01:40:00,
2014-04-16 11:45:00,67.2,59.4,28.36,SSE,151,5.0,5.0,76,0.00,,,0.21,223,Wunderground v.1.15,2014-04-16 01:45:00,
2014-04-16 11:55:00,67.2,59.7,28.36,SW,225,4.0,6.0,77,0.00,,,0.21,250,Wunderground v.1.15,2014-04-16 01:55:00,
2014-04-16 12:00:00,67.2,60.5,28.36,SW,225,3.0,6.0,79,0.00,,,0.21,244,Wunderground v.1.15,2014-04-16 02:00:00,
2014-04-16 12:05:00,67.0,60.3,28.35,SW,229,4.0,6.0,79,0.00,,,0.21,237,Wunderground v.1.15,2014-04-16 02:05:00,
2014-04-16 12:15:00,67.0,60.3,28.36,SSW,211,3.0,4.0,79,0.00,,,0.21,255,Wunderground v.1.15,2014-04-16 02:15:00,
2014-04-16 12:20:00,67.0,60.3,28.34,WSW,248,3.0,4.0,79,0.00,,,0.21,396,Wunderground v.1.15,2014-04-16 02:20:00,
2014-04-16 12:26:00,68.1,61.0,28.34,SSE,161,2.0,4.0,78,0.00,,,0.21,418,Wunderground v.1.15,2014-04-16 02:26:00,
2014-04-16 12:35:00,67.9,59.7,28.34,West,281,5.0,8.0,75,0.00,,,0.21,506,Wunderground v.1.15,2014-04-16 02:35:00,
2014-04-16 12:40:00,69.1,60.1,28.33,SW,222,4.0,12.0,73,0.00,,,0.21,724,Wunderground v.1.15,2014-04-16 02:40:00,
2014-04-16 12:45:00,69.1,59.7,28.33,SSW,206,5.0,12.0,72,0.00,,,0.21,501,Wunderground v.1.15,2014-04-16 02:45:00,
2014-04-16 12:55:00,69.5,60.1,28.33,SSW,212,4.0,5.0,72,0.00,,,0.21,643,Wunderground v.1.15,2014-04-16 02:55:00,
2014-04-16 13:00:00,70.2,60.4,28.33,West,260,4.0,6.0,71,0.00,,,0.21,624,Wunderground v.1.15,2014-04-16 03:00:00,
2014-04-16 13:05:00,69.7,59.5,28.33,SSW,207,4.0,6.0,70,0.00,,,0.21,327,Wunderground v.1.15,2014-04-16 03:05:00,
2014-04-16 13:15:00,70.4,60.5,28.33,SSE,155,3.0,8.0,71,0.00,,,0.21,772,Wunderground v.1.15,2014-04-16 03:15:00,
2014-04-16 13:20:00,70.1,59.0,28.32,SE,136,4.0,11.0,68,0.00,,,0.21,721,Wunderground v.1.15,2014-04-16 03:20:00,
2014-04-16 13:25:00,71.1,60.0,28.33,SSW,195,5.0,11.0,68,0.00,,,0.21,686,Wunderground v.1.15,2014-04-16 03:25:00,
2014-04-16 13:30:00,71.2,59.3,28.33,WSW,239,4.0,4.0,66,0.00,,,0.21,691,Wunderground v.1.15,2014-04-16 03:30:00,
2014-04-16 13:40:00,72.7,60.3,28.32,West,280,3.0,3.0,65,0.00,,,0.21,724,Wunderground v.1.15,2014-04-16 03:40:00,
2014-04-16 13:45:00,72.7,59.8,28.32,SSW,212,3.0,3.0,64,0.00,,,0.21,761,Wunderground v.1.15,2014-04-16 03:45:00,
2014-04-16 13:50:00,72.6,60.2,28.33,West,264,3.0,3.0,65,0.00,,,0.21,737,Wunderground v.1.15,2014-04-16 03:50:00,
2014-04-16 14:00:00,74.1,60.7,28.32,South,173,3.0,3.0,63,0.00,,,0.21,670,Wunderground v.1.15,2014-04-16 04:00:00,
2014-04-16 14:05:00,73.2,59.4,28.31,SW,223,3.0,3.0,62,0.00,,,0.21,636,Wunderground v.1.15,2014-04-16 04:05:00,
2014-04-16 14:10:00,73.2,60.3,28.32,WNW,294,2.0,2.0,64,0.00,,,0.21,606,Wunderground v.1.15,2014-04-16 04:10:00,
2014-04-16 14:20:00,72.7,58.5,28.32,WSW,252,3.0,3.0,61,0.00,,,0.21,571,Wunderground v.1.15,2014-04-16 04:20:00,
2014-04-16 14:25:00,72.1,58.8,28.32,SSW,207,4.0,5.0,63,0.00,,,0.21,552,Wunderground v.1.15,2014-04-16 04:25:00,
2014-04-16 14:30:00,72.5,60.1,28.31,SSW,202,4.0,4.0,65,0.00,,,0.21,545,Wunderground v.1.15,2014-04-16 04:30:00,
2014-04-16 14:35:00,72.4,61.2,28.31,SW,219,4.0,4.0,68,0.00,,,0.21,606,Wunderground v.1.15,2014-04-16 04:35:00,
2014-04-16 14:40:00,73.3,61.7,28.31,West,267,3.0,4.0,67,0.00,,,0.21,538,Wunderground v.1.15,2014-04-16 04:40:00,
2014-04-16 14:45:00,72.7,61.5,28.31,West,262,3.0,8.0,68,0.00,,,0.21,534,Wunderground v.1.15,2014-04-16 04:45:00,
2014-04-16 14:55:00,70.8,60.1,28.31,SE,136,4.0,4.0,69,0.00,,,0.21,494,Wunderground v.1.15,2014-04-16 04:55:00,
2014-04-16 15:00:00,71.2,60.9,28.31,West,271,3.0,6.0,70,0.00,,,0.21,250,Wunderground v.1.15,2014-04-16 05:00:00,
2014-04-16 15:05:00,70.9,59.8,28.31,WSW,243,3.0,6.0,68,0.00,,,0.21,258,Wunderground v.1.15,2014-04-16 05:05:00,
2014-04-16 15:10:00,70.3,60.1,28.32,South,188,3.0,3.0,70,0.00,,,0.21,67,Wunderground v.1.15,2014-04-16 05:10:00,
2014-04-16 15:15:00,69.6,59.8,28.31,WSW,240,3.0,3.0,71,0.00,,,0.21,206,Wunderground v.1.15,2014-04-16 05:15:00,
2014-04-16 15:25:00,68.7,59.3,28.32,SSE,151,4.0,5.0,72,0.00,,,0.21,188,Wunderground v.1.15,2014-04-16 05:25:00,
2014-04-16 15:30:00,69.1,60.1,28.32,SSW,209,4.0,4.0,73,0.00,,,0.21,441,Wunderground v.1.15,2014-04-16 05:30:00,
2014-04-16 15:40:00,69.4,60.0,28.32,South,175,3.0,8.0,72,0.00,,,0.21,90,Wunderground v.1.15,2014-04-16 05:40:00,
2014-04-16 15:50:00,68.4,59.4,28.32,West,263,4.0,4.0,73,0.00,,,0.21,127,Wunderground v.1.15,2014-04-16 05:50:00,
2014-04-16 15:55:00,68.7,60.1,28.32,SW,234,4.0,5.0,74,0.00,,,0.21,320,Wunderground v.1.15,2014-04-16 05:55:00,
2014-04-16 16:00:00,69.5,60.1,28.32,SSE,160,3.0,3.0,72,0.00,,,0.21,308,Wunderground v.1.15,2014-04-16 06:00:00,
2014-04-16 16:05:00,69.7,59.9,28.32,SW,223,3.0,3.0,71,0.00,,,0.21,269,Wunderground v.1.15,2014-04-16 06:05:00,
2014-04-16 16:10:00,69.5,59.7,28.32,SSW,208,3.0,5.0,71,0.00,,,0.21,60,Wunderground v.1.15,2014-04-16 06:10:00,
2014-04-16 16:20:00,68.3,59.3,28.32,SW,226,3.0,3.0,73,0.00,,,0.21,74,Wunderground v.1.15,2014-04-16 06:20:00,
2014-04-16 16:25:00,67.8,59.2,28.33,SSW,200,4.0,4.0,74,0.00,,,0.21,81,Wunderground v.1.15,2014-04-16 06:25:00,
2014-04-16 16:30:00,67.6,59.4,28.33,SSE,166,3.0,3.0,75,0.00,,,0.21,77,Wunderground v.1.15,2014-04-16 06:30:00,
2014-04-16 16:40:00,67.7,59.5,28.32,SW,227,2.0,2.0,75,0.00,,,0.21,121,Wunderground v.1.15,2014-04-16 06:40:00,
2014-04-16 16:45:00,67.6,59.4,28.32,SSW,197,2.0,7.0,75,0.00,,,0.21,107,Wunderground v.1.15,2014-04-16 06:45:00,
2014-04-16 16:50:00,67.7,59.5,28.32,WNW,290,3.0,3.0,75,0.00,,,0.21,97,Wunderground v.1.15,2014-04-16 06:50:00,
2014-04-16 17:00:00,67.8,59.6,28.32,SSW,209,3.0,3.0,75,0.00,,,0.21,51,Wunderground v.1.15,2014-04-16 07:00:00,
2014-04-16 17:05:00,67.7,59.5,28.32,SSW,205,3.0,4.0,75,0.00,,,0.21,33,Wunderground v.1.15,2014-04-16 07:05:00,
2014-04-16 17:10:00,67.4,59.6,28.32,West,267,3.0,3.0,76,0.00,,,0.21,26,Wunderground v.1.15,2014-04-16 07:10:00,
2014-04-16 17:15:00,67.2,59.4,28.32,SW,223,3.0,3.0,76,0.00,,,0.21,18,Wunderground v.1.15,2014-04-16 07:15:00,
2014-04-16 17:25:00,66.7,59.3,28.32,SSW,212,2.0,5.0,77,0.00,,,0.21,7,Wunderground v.1.15,2014-04-16 07:25:00,
2014-04-16 17:30:00,66.6,59.2,28.32,SW,225,3.0,3.0,77,0.00,,,0.21,0,Wunderground v.1.15,2014-04-16 07:30:00,
2014-04-16 17:40:00,66.2,59.5,28.32,WSW,254,2.0,2.0,79,0.00,,,0.21,0,Wunderground v.1.15,2014-04-16 07:40:00,
2014-04-16 17:45:00,66.1,59.4,28.33,WSW,240,2.0,2.0,79,0.00,,,0.21,0,Wunderground v.1.15,2014-04-16 07:45:00,
2014-04-16 17:50:00,66.0,59.3,28.33,SW,214,2.0,2.0,79,0.00,,,0.21,0,Wunderground v.1.15,2014-04-16 07:50:00,
2014-04-16 18:00:00,66.0,59.3,28.33,SW,227,3.0,3.0,79,0.00,,,0.21,0,Wunderground v.1.15,2014-04-16 08:00:00,
2014-04-16 18:05:00,66.0,59.3,28.33,South,176,2.0,3.0,79,0.00,,,0.21,0,Wunderground v.1.15,2014-04-16 08:05:00,
2014-04-16 18:10:00,65.9,59.2,28.33,WSW,248,2.0,2.0,79,0.00,,,0.21,0,Wunderground v.1.15,2014-04-16 08:10:00,
2014-04-16 18:20:00,66.0,59.7,28.34,SSW,211,2.0,2.0,80,0.00,,,0.21,0,Wunderground v.1.15,2014-04-16 08:20:00,
2014-04-16 18:25:00,65.9,59.2,28.34,WSW,237,2.0,6.0,79,0.00,,,0.21,0,Wunderground v.1.15,2014-04-16 08:25:00,
2014-04-16 18:30:00,65.9,59.2,28.34,West,267,2.0,2.0,79,0.00,,,0.21,0,Wunderground v.1.15,2014-04-16 08:30:00,
2014-04-16 18:40:00,65.9,59.6,28.34,West,277,3.0,3.0,80,0.00,,,0.21,0,Wunderground v.1.15,2014-04-16 08:40:00,
2014-04-16 18:45:00,65.9,59.6,28.35,South,184,2.0,3.0,80,0.00,,,0.21,0,Wunderground v.1.15,2014-04-16 08:45:00,
2014-04-16 18:50:00,65.7,59.4,28.34,SW,214,2.0,2.0,80,0.00,,,0.21,0,Wunderground v.1.15,2014-04-16 08:50:00,
2014-04-16 19:00:00,65.5,59.5,28.34,WSW,247,2.0,2.0,81,0.00,,,0.21,0,Wunderground v.1.15,2014-04-16 09:00:00,
2014-04-16 19:05:00,65.4,59.1,28.34,South,182,2.0,2.0,80,0.00,,,0.21,0,Wunderground v.1.15,2014-04-16 09:05:00,
2014-04-16 19:10:00,65.2,58.9,28.34,SW,234,2.0,2.0,80,0.00,,,0.21,0,Wunderground v.1.15,2014-04-16 09:10:00,
2014-04-16 19:15:00,65.2,58.5,28.34,WSW,258,3.0,3.0,79,0.00,,,0.21,0,Wunderground v.1.15,2014-04-16 09:15:00,
2014-04-16 19:20:00,65.1,58.4,28.35,SW,229,3.0,4.0,79,0.00,,,0.21,0,Wunderground v.1.15,2014-04-16 09:20:00,